Temp
9 9 9 9 9 9 9 9 9 9 9 8 8 9 9 9 10 11 12 11 11 10 11 11 11 12 12 14 14 14 14 15 15 15 16 17 17 18 18 19 18 18 20 20 20 19 20
8 9 8 8 8 8 8 8 8 8 8 9 8 8 8 9 9 11 11 11 10 10 10 11 11 12 13 14 14 14 14 14 15 15 16 16 17 18 18 18 18 18 18 19 19 20 20
8 8 8 8 8 8 8 8 8 8 8 8 8 8 8 8 8 9 11 11 10 10 10 10 11 11 13 16 13 13 14 14 14 15 15 14 16 17 17 17 17 17 17 19 20 19 19
8 8 8 8 8 8 8 8 8 8 8 8 8 8 8 8 8 9 10 11 11 10 10 10 11 11 14 12 12 13 14 14 14 14 15 15 15 16 16 16 17 17 17 18 20 19 20
8 8 7 8 8 8 8 8 8 8 8 8 8 8 7 8 8 8 9 11 11 10 10 10 11 12 13 11 12 13 14 15 14 14 15 14 16 16 15 16 16 17 18 17 18 19 19
8 8 8 8 8 8 8 8 7 8 8 8 8 8 7 7 8 8 9 10 10 10 10 10 10 11 12 13 12 12 13 14 15 15 15 15 15 15 15 16 18 18 16 17 18 19 18
8 8 8 8 8 8 8 7 7 7 7 7 7 7 7 7 7 8 8 10 9 10 11 13 13 13 13 12 12 12 13 14 15 15 14 14 13 13 16 16 17 16 16 17 18 18 17
8 8 8 8 7 8 7 7 7 7 7 6 6 6 6 7 7 7 8 9 11 13 11 12 12 12 12 13 13 13 13 14 14 14 14 13 12 16 15 15 15 15 15 16 17 17 16
7 7 7 7 7 7 6 7 6 6 6 6 5 6 6 6 7 7 8 9 11 10 13 10 12 12 13 13 14 13 14 14 14 13 13 14 14 14 13 14 14 15 15 15 15 16 16
7 7 7 7 7 6 6 6 6 6 6 6 6 5 6 6 7 8 9 9 8 8 9 11 10 12 12 14 13 14 14 14 13 14 13 14 15 13 13 13 14 14 16 15 14 14 15
6 6 6 6 6 6 6 6 6 6 6 6 5 5 6 6 5 8 10 10 8 8 12 11 10 12 13 13 13 12 13 14 13 13 13 14 12 12 11 13 14 14 14 14 14 14 14
7 6 6 6 6 6 6 6 6 6 6 6 6 5 5 5 6 7 7 8 7 9 12 10 10 10 11 12 12 12 12 14 14 13 13 14 13 13 14 14 14 14 13 13 13 13 12
6 6 6 6 6 6 6 5 6 6 7 6 6 5 5 5 5 7 7 7 8 11 12 10 11 11 12 12 12 12 12 11 12 11 11 12 13 13 13 12 13 13 12 13 12 12 14
6 6 6 6 6 6 5 5 6 6 6 6 5 6 6 5 5 6 7 8 11 12 13 13 12 12 13 13 12 12 11 11 12 12 12 12 13 13 13 12 14 12 13 14 14 15 16
6 6 6 5 6 6 5 5 5 6 6 6 6 6 6 6 7 7 7 9 11 13 13 12 12 12 12 13 13 12 12 13 14 13 11 11 11 12 12 13 13 12 10 14 12 13 11
6 6 6 6 6 5 5 5 6 6 6 6 6 7 8 7 7 7 7 10 11 13 14 14 13 13 12 12 13 13 13 14 14 14 14 13 12 13 13 12 12 12 13 11 11 11 13
6 5 6 6 5 5 5 6 6 6 6 5 6 7 7 7 7 6 9 9 11 13 14 14 13 13 14 13 13 13 14 14 14 14 14 13 12 12 11 11 13 11 10 10 12 12 13
6 5 5 6 5 5 5 5 5 6 5 6 6 6 7 6 7 7 9 8 12 12 13 13 14 14 14 13 13 13 13 14 14 13 12 13 12 11 12 15 14 15 13 13 11 11 11
6 5 5 5 5 5 5 5 5 5 5 6 6 7 7 7 9 9 9 10 12 12 13 14 13 14 14 13 12 13 13 14 13 13 14 13 10 11 13 13 13 12 13 13 10 10 11
5 5 5 5 5 5 5 5 5 5 5 6 6 7 8 7 10 10 12 12 12 13 13 13 13 13 13 13 13 13 12 13 13 14 13 13 13 11 14 14 14 11 12 11 10 11 13
5 5 5 5 5 5 5 5 5 5 5 6 7 8 8 8 10 13 13 12 12 12 13 14 13 14 14 13 13 12 12 13 12 12 13 13 10 11 12 12 12 11 11 11 10 12 12
5 5 5 5 5 5 5 5 5 5 6 6 6 8 10 10 11 13 11 12 13 12 13 13 13 13 13 14 13 13 13 13 14 13 13 12 11 10 10 12 12 11 11 11 11 11 13
5 5 5 5 5 5 5 5 5 5 5 6 6 6 9 9 10 12 12 12 12 13 13 12 13 13 13 13 14 14 14 14 13 13 13 11 10 10 12 14 14 12 12 11 11 11 13
5 5 5 5 5 5 5 5 5 5 5 5 5 6 9 9 11 12 12 12 12 13 12 12 12 12 13 13 13 12 13 11 12 13 14 11 10 10 11 12 14 15 12 12 12 12 13
5 5 5 5 5 5 5 4 5 5 5 5 5 6 7 10 12 12 12 12 12 13 12 12 12 13 13 13 12 12 12 12 13 13 13 13 12 11 12 13 15 16 14 13 13 15 15
5 4 4 4 4 4 4 4 4 4 4 5 5 5 6 8 11 13 12 12 12 12 12 12 11 11 11 11 12 12 14 14 14 13 11 12 12 11 12 13 15 17 15 13 14 16 15
4 4 4 4 4 4 4 4 4 4 4 4 5 5 5 7 12 12 13 12 13 13 11 10 10 10 11 12 12 12 13 14 14 14 12 11 10 11 12 13 16 16 14 14 16 16 14
4 4 4 4 4 4 4 4 4 4 4 4 5 4 4 5 7 11 12 12 11 13 13 11 11 10 10 10 11 12 12 14 13 14 14 15 13 12 14 14 15 15 14 16 16 14 13
4 4 4 4 4 4 4 4 4 4 4 4 5 5 4 4 7 8 9 10 12 13 12 11 12 11 11 11 11 11 12 13 14 15 13 14 15 16 16 17 16 15 16 15 13 13 13
Height
829 826 823 820 817 813 810 806 803 799 796 793 790 787 784 779 777 776 776 777 778 779 779 779 780 780 780 778 776 776 778 779 778 781 784 784 786 784 786 784 786 785 777 779 777 778 776
831 827 824 820 816 813 809 806 802 799 795 791 788 785 782 777 774 772 773 774 775 778 777 778 778 778 779 776 774 774 776 778 778 780 783 785 784 785 784 786 786 783 782 780 777 775 773
832 828 824 821 817 812 809 805 801 797 793 790 786 783 779 776 771 769 769 770 772 774 776 777 777 776 777 770 773 773 775 778 779 781 784 786 787 787 785 787 786 784 785 775 771 771 772
829 824 821 817 814 810 806 803 799 795 791 787 784 781 777 774 770 766 765 765 769 772 774 774 774 776 771 770 773 774 776 779 781 783 784 786 788 788 787 788 785 785 784 779 766 770 766
826 822 818 815 811 807 803 799 795 791 787 783 779 777 774 771 767 763 760 761 765 768 771 771 774 776 769 770 772 772 775 778 782 784 786 788 788 786 789 788 786 783 775 780 773 766 766
824 819 815 810 807 803 798 794 790 786 783 779 775 772 769 766 764 759 757 757 760 765 770 771 774 777 770 766 769 772 774 777 781 784 788 788 788 786 785 786 774 769 781 777 774 767 769
820 816 811 806 802 797 794 789 785 781 777 774 770 766 763 760 757 756 753 754 758 764 764 756 757 761 763 767 770 772 774 776 780 782 784 787 788 785 776 778 775 779 779 775 770 769 773
817 812 807 802 797 792 788 784 780 775 771 768 765 760 757 754 752 750 750 743 742 744 756 758 758 761 764 764 768 772 775 775 778 779 782 789 786 775 780 781 783 783 779 774 769 769 772
814 809 803 798 792 787 783 778 774 769 766 763 760 756 753 751 748 744 740 739 741 743 744 755 756 758 761 763 762 768 772 773 773 778 778 774 776 778 783 783 784 779 778 775 776 770 768
811 805 799 793 788 783 778 773 768 764 760 757 755 753 751 748 745 739 736 739 743 744 754 751 754 753 758 759 762 764 769 770 775 772 776 775 771 782 783 781 779 777 772 776 779 779 772
807 801 795 789 783 778 773 768 763 759 755 752 750 749 747 749 746 739 735 734 744 747 728 746 753 752 751 754 756 766 768 768 770 772 777 771 779 782 784 779 779 776 776 776 775 774 774
803 797 791 785 779 774 768 763 758 754 750 747 744 742 742 740 740 736 737 735 743 746 724 743 748 747 752 754 756 763 767 768 768 771 774 769 777 775 771 774 776 776 778 778 776 777 775
801 794 788 782 775 769 764 758 753 749 744 740 736 732 733 735 732 733 734 735 741 721 729 741 740 743 744 750 754 756 764 769 766 777 775 770 769 771 773 776 776 776 780 772 774 775 750
798 792 785 778 771 765 760 755 749 743 739 732 722 707 698 710 721 728 730 734 716 714 714 725 730 736 737 744 749 754 760 765 764 766 768 767 757 764 768 769 763 770 768 761 752 738 730
795 788 782 776 769 763 757 752 745 739 733 724 713 704 701 705 715 724 732 717 706 703 710 717 731 735 740 741 740 750 755 754 752 760 766 768 770 763 764 764 767 770 775 760 762 753 760
794 787 781 774 767 761 754 749 743 737 729 721 713 708 708 711 716 722 727 713 712 706 706 712 720 725 731 738 738 743 747 742 745 747 750 756 764 756 760 767 764 762 760 767 768 752 733
792 785 779 772 765 759 752 747 741 735 728 719 716 712 714 715 720 726 716 719 711 710 708 710 717 721 722 730 734 737 738 741 742 744 750 755 762 760 767 763 746 763 766 764 755 741 726
790 784 777 771 764 758 751 746 739 733 727 718 716 713 714 716 722 726 716 721 709 712 710 709 712 715 720 727 733 735 736 738 740 745 752 751 755 756 745 733 738 736 739 742 748 738 733
789 782 776 770 763 757 750 743 737 730 724 716 715 712 716 716 709 713 718 716 710 712 710 709 715 716 721 726 733 732 737 737 741 741 742 748 758 751 730 738 737 740 728 728 742 741 725
788 782 775 769 763 757 750 744 737 728 718 712 710 709 714 716 708 708 705 709 709 710 711 712 717 719 722 726 730 734 738 738 738 739 744 744 741 743 727 719 724 736 725 732 736 725 702
787 781 775 769 763 757 751 744 738 728 716 711 710 708 709 712 709 702 704 707 709 712 713 713 719 718 720 724 729 732 735 736 739 739 741 743 746 743 732 728 727 724 719 719 722 707 709
786 781 775 769 763 758 753 747 739 731 721 718 716 710 707 708 708 704 709 709 710 713 713 717 715 718 721 720 723 726 730 733 729 733 738 738 738 740 732 721 713 713 707 706 706 703 692
786 781 775 769 764 758 754 749 743 736 730 727 724 720 715 719 714 707 710 711 712 710 717 719 718 721 723 724 724 724 727 727 729 728 733 741 742 740 717 703 698 699 696 695 696 694 689
785 780 775 770 765 760 756 751 747 741 737 734 731 728 716 716 712 708 711 712 712 713 716 720 724 724 724 724 725 727 725 728 727 725 726 732 742 743 724 711 692 681 688 688 687 682 679
783 780 775 770 765 761 757 753 748 744 741 736 733 731 725 715 713 714 712 714 716 716 718 720 723 723 725 726 727 724 723 723 715 719 721 723 730 727 719 708 686 675 682 684 682 669 665
782 779 775 770 766 761 758 753 750 748 743 738 736 733 730 724 713 711 712 715 715 717 720 721 726 727 726 726 724 719 707 705 708 714 720 720 724 727 720 712 688 676 679 682 679 665 665
780 778 774 770 765 762 758 754 749 746 744 741 739 737 733 726 711 711 709 712 712 715 721 724 726 726 726 721 721 717 708 707 703 703 714 722 728 721 717 710 685 676 679 680 668 674 668
778 775 773 769 765 761 759 754 750 746 743 741 739 737 737 732 720 712 710 710 713 711 713 720 724 725 726 727 722 713 712 704 705 699 700 700 707 712 704 702 688 677 677 672 669 670 673
776 774 770 766 763 760 758 754 751 749 747 743 740 738 735 733 720 714 711 710 710 710 714 718 718 718 720 722 719 717 710 706 701 692 701 699 692 686 688 674 672 673 670 669 673 673 673
Wind_Speed
21 22 22 23 22 23 22 23 23 24 25 24 24 23 25 23 20 17 18 14 12 10 8 5 5 4 4 5 4 3 1 4 10 17 14 9 9 6 8 5 7 12 11 9 9 8 12
22 22 23 23 23 22 23 22 24 24 26 26 26 24 25 25 19 18 18 16 13 11 8 6 4 4 4 9 3 4 3 2 7 17 15 9 5 4 3 4 9 2 6 10 10 14 15
23 24 23 24 25 24 24 24 24 24 24 25 25 24 25 24 24 18 16 20 15 12 10 6 4 3 3 5 3 4 8 5 5 12 8 8 5 6 5 4 3 5 10 12 15 13 12
22 22 21 24 26 25 25 24 24 25 25 24 24 24 24 24 25 21 14 24 17 15 12 8 5 3 4 2 7 5 7 8 8 6 7 9 7 3 2 1 3 4 5 5 2 3 7
23 23 24 25 26 26 26 25 25 25 27 25 24 24 23 24 23 23 14 23 20 17 12 10 5 2 3 3 4 8 11 11 9 8 7 9 5 2 4 6 5 8 7 9 9 6 5
24 25 24 23 25 24 27 26 25 26 28 27 25 23 26 25 21 22 17 15 20 17 13 9 5 3 4 3 5 8 10 13 6 11 6 4 3 5 7 8 5 5 7 7 10 2 7
25 25 24 25 27 26 27 26 25 26 27 28 27 25 27 26 22 19 21 12 7 5 9 8 10 2 6 8 8 6 13 12 8 10 10 7 7 11 13 14 9 4 7 11 9 7 15
26 27 27 29 28 28 26 26 26 26 26 25 23 25 21 17 18 20 22 4 13 6 8 9 8 5 4 7 5 9 14 9 10 11 9 5 11 12 7 10 12 13 15 16 14 12 12
29 29 30 30 30 29 27 27 26 26 26 22 21 20 17 21 21 20 17 12 20 3 3 11 10 6 5 8 5 13 16 8 11 11 15 9 3 0 13 11 12 15 15 13 15 15 17
30 31 31 31 30 30 27 28 26 26 25 24 17 15 19 26 12 12 13 20 9 7 2 9 10 7 9 8 4 13 17 5 4 11 9 9 9 7 7 11 12 14 8 12 13 10 6
30 31 31 31 32 30 28 28 25 25 26 22 17 19 23 22 21 10 9 20 11 8 7 10 6 9 13 12 12 7 12 3 6 8 6 3 6 10 12 11 13 8 5 8 9 11 11
32 31 31 31 31 29 29 27 26 26 26 23 22 24 23 22 16 18 15 26 8 4 6 7 6 11 14 10 6 7 10 1 2 6 7 10 2 5 7 8 13 2 6 9 10 9 7
30 29 29 32 31 29 30 27 27 27 29 28 29 33 33 28 16 17 14 9 4 5 9 9 9 14 16 12 9 10 12 10 6 5 8 5 15 6 7 9 8 10 5 3 4 6 9
30 32 32 32 31 30 29 28 28 31 30 34 41 47 32 37 28 24 11 4 5 6 6 6 15 16 9 17 6 11 12 10 10 3 2 4 4 15 11 16 4 16 14 6 7 11 14
31 31 31 31 30 30 30 29 29 32 34 39 39 10 7 13 19 20 5 4 4 8 12 15 14 8 6 13 6 7 11 8 11 15 7 5 5 2 6 7 11 5 9 15 15 15 9
30 30 30 30 30 30 30 30 31 31 36 46 21 7 4 15 18 8 4 0 2 4 17 17 7 8 9 14 8 10 12 6 8 17 14 2 4 6 3 7 11 14 1 5 6 7 17
30 29 30 30 30 30 30 31 30 31 36 27 11 2 4 17 14 3 3 2 3 11 12 4 7 9 9 13 9 12 6 3 9 12 16 8 4 4 5 12 13 10 8 6 6 7 7
30 30 29 30 30 30 29 31 32 33 36 16 3 1 11 12 3 2 2 3 5 6 0 4 9 10 14 14 11 10 9 5 8 11 11 12 5 7 15 13 13 16 16 19 7 8 6
30 30 29 29 29 30 30 31 32 35 35 20 1 0 3 4 2 3 6 3 3 4 2 3 4 3 5 9 6 9 5 3 10 12 12 11 4 4 4 2 6 9 18 20 12 8 17
29 29 29 28 30 30 30 31 33 37 44 12 2 2 3 2 1 8 10 4 4 5 5 7 7 5 6 5 1 7 7 3 10 13 6 10 6 7 10 14 6 7 13 17 16 10 17
29 28 29 29 29 30 30 32 34 40 41 13 2 2 1 3 5 8 4 4 9 4 3 4 3 3 5 4 5 4 6 2 3 8 8 7 6 11 20 22 21 23 23 17 20 26 16
27 28 28 27 28 28 29 31 35 38 34 7 4 3 3 4 7 11 3 4 5 5 4 4 3 7 6 4 5 5 5 6 5 10 11 6 5 3 13 20 22 22 21 17 20 25 26
27 27 27 26 25 27 27 30 32 34 32 5 7 5 3 3 4 6 4 5 5 6 3 5 5 5 7 7 6 9 7 5 3 5 12 5 1 3 8 13 19 8 7 12 8 19 22
26 27 25 24 24 24 26 27 28 29 29 13 5 4 3 2 2 4 5 3 9 6 4 4 2 2 2 2 2 2 8 7 10 14 10 5 3 3 7 11 4 6 6 10 12 17 19
24 25 24 23 23 23 24 25 26 26 26 17 10 5 3 2 4 7 4 5 5 5 2 3 3 2 2 1 2 3 2 3 8 13 16 15 8 3 3 4 10 4 5 4 3 4 5
21 22 22 22 22 23 22 23 24 25 25 23 10 19 3 3 6 7 6 7 6 4 3 3 3 2 1 2 3 3 3 2 2 4 3 9 11 5 1 4 3 3 5 1 1 3 11
19 19 19 21 21 22 21 22 22 24 24 21 5 16 3 2 3 8 7 8 4 4 2 2 2 1 2 2 2 4 3 1 2 3 4 4 2 6 5 5 7 3 4 2 5 6 15
18 18 18 19 19 20 21 21 21 22 22 22 10 10 5 3 7 3 4 4 3 4 3 4 3 1 2 2 3 3 3 2 2 2 4 7 6 5 4 4 4 3 2 3 4 7 6
17 17 18 17 18 19 20 20 19 18 18 18 6 12 13 4 4 6 6 2 2 4 3 4 1 2 2 3 2 2 3 3 2 2 3 4 5 2 5 3 2 3 7 5 5 6 2
Wind_Direction
357 353 355 352 350 351 347 345 344 343 339 335 334 326 335 332 324 286 241 233 234 233 237 248 254 208 170 211 203 155 172 228 200 185 182 186 196 199 218 214 215 233 249 249 248 253 256
353 350 350 349 347 345 346 344 345 340 334 332 328 324 325 332 316 298 249 235 225 222 216 227 224 180 200 217 179 183 158 98 184 187 181 180 214 226 227 227 228 276 258 263 266 260 261
352 350 346 346 344 344 341 340 339 336 333 331 326 322 317 321 319 317 269 226 222 209 199 189 182 158 212 233 162 137 146 118 141 184 175 174 178 204 170 195 213 267 276 271 260 252 253
344 343 341 340 335 335 333 332 330 331 329 327 323 319 318 311 313 304 298 217 212 197 187 182 166 152 245 212 211 171 135 120 114 135 188 171 180 149 227 126 199 249 261 276 90 267 242
337 334 336 334 329 330 329 328 328 329 327 321 318 311 310 305 305 299 306 224 196 183 183 167 146 203 246 133 211 200 178 159 132 116 114 131 154 172 168 224 239 215 254 233 282 247 284
332 332 328 327 325 324 324 324 322 323 324 319 315 306 306 304 292 306 296 238 178 148 137 120 110 222 207 194 157 159 165 157 149 142 126 159 171 208 214 201 235 231 228 236 252 179 266
332 329 326 323 321 324 321 323 317 317 318 315 313 304 301 296 291 294 288 187 133 150 192 199 176 150 138 119 127 165 155 139 137 186 203 195 208 216 222 221 253 291 267 261 260 267 300
331 326 325 324 324 322 323 324 318 321 317 317 316 312 307 310 290 290 283 209 175 159 186 203 170 145 140 160 128 148 168 161 176 192 170 179 234 239 244 233 239 249 259 264 278 272 270
328 330 328 327 325 324 328 322 320 320 318 316 310 318 324 321 311 295 267 220 207 321 141 175 181 177 178 179 167 172 181 163 183 177 197 209 105 121 211 215 229 240 253 270 274 295 286
333 331 330 327 327 331 327 324 322 323 318 316 315 311 332 337 302 276 254 234 200 75 112 163 189 208 177 155 204 163 178 160 163 199 194 241 240 209 195 223 227 262 251 253 261 279 275
335 336 335 329 332 332 328 327 324 324 320 316 310 316 320 323 307 289 297 197 183 69 203 138 150 146 164 174 132 170 175 173 178 162 172 159 178 196 220 230 216 235 201 242 254 258 283
337 335 335 335 335 333 332 329 328 326 324 323 311 305 304 308 311 264 273 156 107 126 198 156 135 161 154 187 142 127 175 175 185 193 228 256 190 212 222 218 210 102 226 249 262 264 249
342 340 339 337 335 335 336 332 330 329 324 319 306 298 280 271 257 272 186 128 122 221 163 152 172 156 153 166 143 154 173 178 172 168 211 223 229 199 195 222 211 217 202 258 231 207 244
334 336 338 339 339 340 341 339 334 330 326 324 315 306 277 241 242 234 168 170 187 133 145 170 148 153 158 153 155 166 163 187 214 184 131 232 219 196 195 217 213 212 209 222 257 268 283
339 342 342 343 344 344 343 343 337 334 331 329 334 337 94 170 184 196 144 195 149 171 147 142 134 154 125 170 161 148 181 201 202 193 202 182 258 206 206 203 207 181 218 243 268 266 259
341 345 345 346 346 344 344 345 342 338 337 336 354 330 54 146 157 167 156 184 180 150 135 138 130 189 164 167 162 180 183 207 210 194 208 178 262 214 165 204 238 222 246 211 202 248 248
344 345 347 347 346 348 346 347 344 344 341 344 8 300 162 144 138 42 159 163 132 140 135 160 133 140 161 165 176 182 181 187 208 193 194 185 212 155 165 207 209 200 227 218 267 253 262
345 345 348 348 350 349 348 350 347 344 342 343 344 216 159 146 122 196 132 160 109 152 226 102 101 106 155 160 173 191 208 240 185 155 187 198 223 240 237 245 228 235 239 226 233 229 230
346 346 350 349 351 353 354 353 350 345 345 329 253 260 172 252 142 120 136 172 117 165 96 104 106 108 159 163 158 194 197 224 178 186 177 174 211 283 259 192 217 236 240 233 239 255 247
347 350 351 353 353 354 357 355 353 350 345 345 86 134 113 26 301 122 141 110 116 46 65 72 105 98 125 152 125 179 215 219 198 205 168 175 220 232 259 281 315 244 250 228 216 238 256
347 351 352 356 357 357 360 358 357 359 359 6 234 82 353 146 169 143 111 112 131 113 73 102 110 154 153 145 169 215 210 199 196 203 191 212 244 242 259 270 275 269 266 241 221 231 241
350 352 352 355 359 358 1 0 1 4 6 28 0 358 36 93 150 143 69 136 145 111 122 148 146 165 194 177 198 199 195 213 215 197 200 217 275 282 279 268 263 269 262 247 235 236 246
346 348 352 356 360 358 1 3 4 7 16 357 341 312 293 96 147 171 150 165 140 117 64 73 177 134 217 239 259 263 226 238 250 214 201 197 214 300 271 315 309 272 260 252 234 240 243
347 350 354 355 359 1 360 4 5 7 13 359 341 294 330 94 163 150 160 130 175 177 107 148 183 169 169 67 23 310 246 241 242 231 214 189 158 220 290 310 287 319 217 247 256 252 241
348 350 355 358 359 1 360 3 4 6 8 8 2 335 334 116 202 211 210 180 105 87 102 148 171 189 340 284 265 261 206 221 230 223 226 225 231 268 278 298 278 324 352 309 264 328 297
350 350 354 359 0 359 1 360 4 6 5 9 26 7 331 328 213 197 174 187 196 206 167 154 85 25 130 216 218 250 237 207 160 150 21 215 223 218 304 295 310 337 340 2 166 2 354
346 348 351 355 358 357 357 359 1 2 3 2 358 6 298 290 282 210 187 182 177 144 80 112 176 197 244 222 253 246 235 293 207 211 165 133 166 228 236 260 277 272 295 246 343 330 348
340 341 344 348 353 354 352 352 355 354 356 359 313 355 36 302 284 283 192 156 121 160 166 138 169 165 150 232 240 235 233 206 252 200 182 191 187 210 205 242 288 173 231 315 343 328 324
333 333 336 341 344 348 344 345 346 348 348 348 316 326 337 219 277 303 282 265 251 195 145 183 23 144 194 243 200 312 238 207 239 260 182 224 228 280 228 259 0 245 268 292 313 296 312